Date String (YYYY-MM-DD hh:mm:ss) UTC,Instrument flags,Ambient pressure (hPa),Sample flow (lpm),Bypass flow (lpm),Sample temperature (°C),Ambient temperature (°C),ASC tube jacket temperature (°C),LED temperature (°C),Box temperature (°C),Sample RH (%),Span deviation,Mass concentration (μg/m³),Mass concentration (μg/m³),Mass concentration (μg/m³)
DateTimeUTC,F1_M11,P_M11,Q1_M11,Q2_M11,T1_M11,T2_M11,T3_M11,T4_M11,T5_M11,U1_M11,ZSPAN_M11,X0_M11,X2_M11,X1_M11
2022-06-26 03:00:00,,0835.6,5.01,0.00,29.6,27.6,00.0,38.4,31.3,25.4,0000.0,0011.73,0004.57,0003.90
2022-06-26 03:01:00,,0835.6,5.00,0.00,29.5,27.7,00.0,38.4,31.3,25.5,0000.0,0011.51,0004.60,0003.91
2022-06-26 03:02:00,,0835.6,5.00,0.00,29.5,27.8,00.0,38.4,31.3,26.2,0000.0,0012.19,0004.59,0003.90
2022-06-26 03:03:00,,0835.6,5.00,0.00,29.5,27.9,00.0,38.4,31.4,27.0,0000.0,0011.57,0004.58,0003.89
2022-06-26 03:04:00,,0835.6,4.99,0.00,29.5,28.0,00.0,38.4,31.4,27.1,0000.0,0011.16,0004.57,0003.88
2022-06-26 03:05:00,,0835.7,5.00,0.00,29.5,28.1,00.0,38.4,31.4,27.0,0000.0,0010.77,0004.54,0003.87
2022-06-26 03:06:00,,0835.7,5.00,0.00,29.6,28.2,00.0,38.4,31.4,27.1,0000.0,0010.35,0004.52,0003.86
2022-06-26 03:07:00,,0835.7,5.00,0.00,29.6,28.3,00.0,38.4,31.5,27.0,0000.0,0010.34,0004.51,0003.85
2022-06-26 03:08:00,,0835.7,4.99,0.00,29.6,28.4,00.0,38.4,31.5,27.0,0000.0,0010.41,0004.54,0003.86
2022-06-26 03:09:00,,0835.8,4.99,0.00,29.6,28.5,00.0,38.4,31.5,26.6,0000.0,0010.41,0004.56,0003.87
2022-06-26 03:10:00,,0835.8,5.00,0.00,29.6,28.5,00.0,38.4,31.6,26.0,0000.0,0010.53,0004.55,0003.88
2022-06-26 03:11:00,,0835.7,5.01,0.00,29.6,28.6,00.0,38.4,31.6,26.2,0000.0,0010.11,0004.58,0003.89
2022-06-26 03:12:00,,0835.8,5.00,0.00,29.7,28.7,00.0,38.4,31.6,26.7,0000.0,0009.82,0004.60,0003.89
2022-06-26 03:13:00,,0835.9,5.00,0.00,29.7,28.7,00.0,38.4,31.6,26.8,0000.0,0009.29,0004.64,0003.91
2022-06-26 03:14:00,,0835.9,4.99,0.00,29.7,28.7,00.0,38.5,31.7,27.0,0000.0,0009.51,0004.68,0003.93
2022-06-26 03:15:00,,0835.9,4.99,0.00,29.7,28.8,00.0,38.5,31.7,27.1,0000.0,0010.01,0004.68,0003.94
2022-06-26 03:16:00,,0835.9,5.00,0.00,29.8,28.8,00.0,38.5,31.7,27.0,0000.0,0010.89,0004.75,0003.95
2022-06-26 03:17:00,,0835.9,5.00,0.00,29.8,28.9,00.0,38.5,31.7,26.9,0000.0,0011.38,0004.78,0003.98
2022-06-26 03:18:00,,0836.0,5.01,0.00,29.8,28.9,00.0,38.5,31.8,26.9,0000.0,0011.96,0004.82,0003.99
2022-06-26 03:19:00,,0835.9,5.00,0.00,29.8,28.9,00.0,38.6,31.7,27.0,0000.0,0012.34,0004.81,0003.99
2022-06-26 03:20:00,,0836.0,4.99,0.00,29.8,28.9,00.0,38.6,31.8,26.7,0000.0,0012.49,0004.82,0003.99
2022-06-26 03:21:00,,0836.0,5.00,0.00,29.9,29.0,00.0,38.6,31.8,26.6,0000.0,0012.31,0004.84,0003.99
2022-06-26 03:22:00,,0836.0,5.00,0.00,29.9,28.9,00.0,38.6,31.8,26.1,0000.0,0012.42,0004.80,0003.98
2022-06-26 03:23:00,,0836.1,4.99,0.00,29.8,28.2,00.0,38.5,31.6,25.7,0000.0,0012.39,0004.78,0003.99
2022-06-26 03:24:00,,0836.1,5.00,0.00,29.8,27.7,00.0,38.5,31.5,25.7,0000.0,0012.27,0004.76,0004.01
2022-06-26 03:25:00,,0836.1,5.00,0.00,29.7,27.5,00.0,38.5,31.4,25.8,0000.0,0012.02,0004.75,0004.02
2022-06-26 03:26:00,,0836.2,5.01,0.00,29.6,27.6,00.0,38.5,31.3,26.0,0000.0,0011.63,0004.80,0004.03
2022-06-26 03:27:00,,0836.2,5.00,0.00,29.6,27.6,00.0,38.5,31.3,26.1,0000.0,0011.26,0004.76,0004.03
2022-06-26 03:28:00,,0836.2,5.00,0.00,29.6,27.8,00.0,38.5,31.4,26.2,0000.0,0012.00,0004.73,0004.01
2022-06-26 03:29:00,,0836.2,5.01,0.00,29.6,27.9,00.0,38.4,31.4,26.2,0000.0,0011.47,0004.73,0004.01
2022-06-26 03:30:00,,0836.2,5.00,0.00,29.6,28.0,00.0,38.4,31.4,26.4,0000.0,0011.24,0004.75,0004.01
2022-06-26 03:31:00,,0836.3,5.00,0.00,29.6,28.1,00.0,38.4,31.4,26.4,0000.0,0011.13,0004.77,0004.01
2022-06-26 03:32:00,,0836.3,5.00,0.00,29.6,28.2,00.0,38.4,31.4,26.3,0000.0,0011.04,0004.77,0004.01
2022-06-26 03:33:00,,0836.2,5.00,0.00,29.6,28.3,00.0,38.4,31.5,26.3,0000.0,0010.59,0004.78,0004.02
2022-06-26 03:34:00,,0836.3,4.99,0.00,29.6,28.4,00.0,38.4,31.5,26.4,0000.0,0010.71,0004.80,0004.01
2022-06-26 03:35:00,,0836.3,5.01,0.00,29.6,28.5,00.0,38.4,31.5,26.5,0000.0,0011.44,0004.84,0004.00
2022-06-26 03:36:00,,0836.3,4.99,0.00,29.6,28.5,00.0,38.4,31.6,26.4,0000.0,0011.78,0004.84,0004.00
2022-06-26 03:37:00,,0836.4,5.00,0.00,29.7,28.6,00.0,38.5,31.6,26.5,0000.0,0012.35,0004.81,0004.00
2022-06-26 03:38:00,,0836.4,5.00,0.00,29.7,28.6,00.0,38.5,31.6,26.4,0000.0,0013.19,0004.83,0004.00
2022-06-26 03:39:00,,0836.4,5.00,0.00,29.7,28.7,00.0,38.5,31.6,26.4,0000.0,0012.18,0004.86,0004.01
2022-06-26 03:40:00,,0836.4,4.99,0.00,29.7,28.7,00.0,38.5,31.7,26.4,0000.0,0012.27,0004.86,0004.02
2022-06-26 03:41:00,,0836.5,4.99,0.00,29.7,28.8,00.0,38.5,31.7,26.4,0000.0,0012.31,0004.86,0004.02
2022-06-26 03:42:00,,0836.5,5.03,0.00,29.7,28.8,00.0,38.5,31.7,26.3,0000.0,0012.27,0004.83,0004.03
2022-06-26 03:43:00,,0836.5,5.00,0.00,29.8,28.8,00.0,38.5,31.7,26.3,0000.0,0012.12,0004.81,0004.03
2022-06-26 03:44:00,,0836.5,5.01,0.00,29.8,28.9,00.0,38.6,31.7,26.0,0000.0,0012.64,0004.84,0004.03
2022-06-26 03:45:00,,0836.5,5.00,0.00,29.8,28.9,00.0,38.6,31.8,26.0,0000.0,0012.53,0004.80,0004.03
2022-06-26 03:46:00,,0836.5,5.00,0.00,29.8,28.9,00.0,38.6,31.7,26.0,0000.0,0012.27,0004.75,0004.04
2022-06-26 03:47:00,,0836.5,5.00,0.00,29.8,29.0,00.0,38.6,31.8,26.2,0000.0,0012.38,0004.77,0004.04
2022-06-26 03:48:00,,0836.5,5.01,0.00,29.9,29.0,00.0,38.6,31.8,26.2,0000.0,0011.68,0004.76,0004.04
2022-06-26 03:49:00,,0836.5,5.00,0.00,29.9,29.0,00.0,38.6,31.8,26.3,0000.0,0010.94,0004.71,0004.03
2022-06-26 03:50:00,,0836.6,5.00,0.00,29.9,28.4,00.0,38.6,31.7,26.3,0000.0,0011.07,0004.68,0004.02
2022-06-26 03:51:00,,0836.6,5.00,0.00,29.8,27.7,00.0,38.5,31.5,26.4,0000.0,0010.71,0004.67,0004.01
2022-06-26 03:52:00,,0836.6,5.00,0.00,29.7,27.5,00.0,38.5,31.4,26.5,0000.0,0010.49,0004.63,0004.02
2022-06-26 03:53:00,,0836.6,5.00,0.00,29.6,27.5,00.0,38.5,31.3,26.7,0000.0,0010.37,0004.63,0004.02
2022-06-26 03:54:00,,0836.6,5.00,0.00,29.6,27.6,00.0,38.5,31.3,26.8,0000.0,0010.51,0004.64,0004.01
2022-06-26 03:55:00,,0836.6,5.00,0.00,29.6,27.7,00.0,38.5,31.4,26.9,0000.0,0010.15,0004.62,0004.01
2022-06-26 03:56:00,,0836.6,5.01,0.00,29.6,27.8,00.0,38.5,31.4,27.0,0000.0,0010.96,0004.61,0004.00
2022-06-26 03:57:00,,0836.6,5.00,0.00,29.6,28.0,00.0,38.5,31.4,26.9,0000.0,0011.27,0004.68,0003.99
2022-06-26 03:58:00,,0836.7,5.00,0.00,29.6,28.1,00.0,38.5,31.4,26.9,0000.0,0010.78,0004.66,0003.98
2022-06-26 03:59:00,,0836.7,5.01,0.00,29.6,28.2,00.0,38.5,31.4,26.8,0000.0,0010.53,0004.65,0003.97
